Back to catalog

STARLINK-32883

AliveCommunicationsVLEO
NORAD 62806·PAYLOAD·🇺🇸 United States

Launched Jan 24, 2025 from Vandenberg Space Force Base

Loading…

Next Passes (next 24 hours)

TLE

FreshSource: CelesTrak SupGP

Epoch: Sep 14, 2026, 22:55 UTC

1 62806C 25018A   26257.95534722 -.00083807  00000+0 -24758-2 0  2579
2 62806  53.1569 147.2858 0001234  90.2526 172.0329 15.34436772    19

Track STARLINK-32883 in real time with AllMySat

Download on the App Store